COSMOS 1275 DEB, 42231

Orbit data source: Space-Track

COSMOS 1275 DEB, 42231 is space debris in LEO originally from a launch on Thu, 04 Jun 1981 UTC launched from the Plesetsk Missile And Space Complex (PKMTR). Debris objects in space refer to the collection of defunct objects orbiting the Earth. Examples of debris include non-operational satellites, rocket bodies, and fragments generated from explosions, collisions, or faulty payload assembly.

Loading next visibility...
Identifier
42231, 1981-053UX
Orbit
LEO
Country
Flag of CISCIS
Related business
Manufacturer
Unknown
Mission
Spacecraft
Bus & Motor
Unknown
Mass
Unknown
Launch date (UTC)
1981-06-04 (44 years ago)
Launch vehicle
Unknown
Launch site
Plesetsk Missile And Space Complex (PKMTR)
Object type
Payload
Rocket body
Debris
Shape & HBR
Unknown shape, 0.1 m
Radar Cross Section
Small (<0.1 m²)

Expand to show TLE details & history
Last TLE update: 1 week ago

TLE from 1 week ago
0 COSMOS 1275 DEB
1 42231U 81053UX  25280.21012892  .00006546  00000-0  25127-2 0  9991
2 42231  82.7546  89.9804 0035051 236.8452 122.9370 14.30039022613310
Epoch: 2025-10-07T05:02Z
TLE epoch observation values (Epoch: 2025-10-07T05:02:35.138Z)
Latitude
-0.00007°
Longitude
-1.76831°
Altitude
808.3 km
Speed
7.442 km/s
True Right ascension
05h 59m 55s
True Declination
0° 00' 00"
Sunlit
Object was in daylight at epoch
Visualization orbit readout
Latitude
Unknown
Longitude
Unknown
Altitude
Unknown
Speed
Unknown
Apparent Right ascension
Unknown
Apparent Declination
Unknown
Sunlit
N/A
Visualization observer readout
Local Sidereal Time
05:45:08
Azimuth
Unknown
Elevation
Unknown
Doppler factor
Unknown
Orbital elements
Apogee altitude
813.801 km
Perigee altitude
763.56 km
Semi-major axis
7,166.818 km
Eccentricity
0.00351
Inclination
82.7546°
RAAN
89.9804°
Arg. of periapsis
236.8452°
True anomaly
123.27329°
Mean anomaly
122.937°
Eccentric anomaly
123.10523°
Mean motion
3.57729 °/min
Orbital period
100.63 mins
BSTAR
0.0025127
Loading maneuver chart data...
Computing Atmospheric mass density...

Documentation

Showing up to 5 results
|